{"data":{"norad_id":63414,"epoch":"2026-09-20T22:19:10.113024Z","epoch_age_seconds":121733,"freshness":"FRESH","line1":"1 63414U 25065R   26263.92997816  .00011856  00000+0  43950-3 0  9990","line2":"2 63414  42.9994  84.9083 0001288 274.7681  85.3023 15.27593000 82691","mean_motion":15.27593,"eccentricity":0.0001288,"inclination_deg":42.9994,"raan_deg":84.9083,"arg_perigee_deg":274.7681,"mean_anomaly_deg":85.3023,"bstar":0.0004395,"rev_number":8269,"period_min":94.265946492292,"perigee_km":482.12645388354,"apogee_km":483.89388539444,"semimajor_km":6861.147169639,"source":"CELESTRAK","updated_at":"2026-09-21T09:00:34.980800Z"}}